Location: Oberkirch
(48.5323°N, 8.0787°E)
Time: 07:45:41
(UTC+00:00)

H-2A R/B - Pass Details

Date: 08 November 2025
Orbit: 522 x 537 km, 98.2° (Epoch: 12 December)

Event Time Altitude Azimuth Distance (km) Brightness Sun altitude
Rises 04:05:13 0° 12° (NNE) 2,683 7.0 -23.3°
Reaches altitude 10° 04:07:21 10° 10° (N) 1,785 6.0 -22.9°
Enters shadow 04:09:56 40° 360° (N) 785 4.0 -22.5°
